This is the latest recevied weather packets stored in our database for station/object KD2DXJ. If no packets are shown the sender has not sent any weather packets the latest 10 day(s).
| Time | Temp. | Humidity | Pressure | Rain* | Wind** | Luminosity | Snow |
|---|---|---|---|---|---|---|---|
| 1778106582 | 7.78° C | 90% | 1009.3 hPa | 0 mm | - | 36 W/m² | - |
| 1778106278 | 8.33° C | 91% | 1009.3 hPa | 0 mm | - | 50 W/m² | - |
| 1778105975 | 8.33° C | 91% | 1009.2 hPa | 0 mm | - | 52 W/m² | - |
| 1778105672 | 8.33° C | 90% | 1009.4 hPa | 0 mm | - | 56 W/m² | - |
| 1778105370 | 8.33° C | 88% | 1009.2 hPa | 0 mm | - | 60 W/m² | - |
| 1778105065 | 8.33° C | 88% | 1009.3 hPa | 0 mm | - | 63 W/m² | - |
| 1778104762 | 8.33° C | 88% | 1009.2 hPa | 0 mm | - | 72 W/m² | - |
| 1778104458 | 8.33° C | 86% | 1008.9 hPa | 0 mm | - | 71 W/m² | - |
| 1778104154 | 8.33° C | 86% | 1009 hPa | 0 mm | - | 83 W/m² | - |
| 1778103851 | 8.33° C | 86% | 1009 hPa | 0 mm | - | 92 W/m² | - |
| 1778103549 | 8.33° C | 85% | 1008.9 hPa | 0 mm | - | 88 W/m² | - |
| 1778103247 | 8.33° C | 85% | 1008.8 hPa | 0 mm | - | 107 W/m² | - |
| 1778102944 | 8.33° C | 84% | 1008.8 hPa | 0 mm | - | 118 W/m² | - |
| 1778102639 | 8.33° C | 85% | 1008.7 hPa | 0 mm | - | 104 W/m² | - |
| 1778102334 | 8.33° C | 86% | 1008.6 hPa | 0 mm | - | 101 W/m² | - |
| 1778102031 | 8.33° C | 88% | 1008.8 hPa | 0 mm | - | 106 W/m² | - |
| 1778101728 | 8.33° C | 87% | 1009 hPa | 0 mm | - | 82 W/m² | - |
| 1778101425 | 8.33° C | 86% | 1008.8 hPa | 0 mm | - | 115 W/m² | - |
| 1778101122 | 8.33° C | 88% | 1008.8 hPa | 0 mm | - | 127 W/m² | - |
| 1778100818 | 8.33° C | 86% | 1008.8 hPa | 0 mm | - | 156 W/m² | - |
| 1778100514 | 8.33° C | 88% | 1008.8 hPa | 0 mm | - | 108 W/m² | - |
| 1778100212 | 8.33° C | 87% | 1008.6 hPa | 0 mm | - | 97 W/m² | - |
| 1778099910 | 8.33° C | 87% | 1008.8 hPa | 0 mm | - | 112 W/m² | - |
| 1778099607 | 8.33° C | 86% | 1008.6 hPa | 0 mm | - | 136 W/m² | - |
| 1778099303 | 7.78° C | 87% | 1008.8 hPa | 0 mm | - | 139 W/m² | - |
* Rain latest hour (hover to see other rain measurements)
** Current wind speed in m/s (hover to see current wind gust speed)